{"data":{"norad_id":42947,"epoch":"2026-05-25T04:10:12.887328Z","epoch_age_seconds":50137,"freshness":"FRESH","line1":"1 42947U 17058C   26145.17376027  .00002015  00000+0  14360-3 0  9992","line2":"2 42947  34.9959 161.3347 0004733 354.9255   5.1405 15.04366262472353","mean_motion":15.04366262,"eccentricity":0.0004733,"inclination_deg":34.9959,"raan_deg":161.3347,"arg_perigee_deg":354.9255,"mean_anomaly_deg":5.1405,"bstar":0.0001436,"rev_number":47235,"period_min":95.721370278909,"perigee_km":550.17097208508,"apogee_km":556.73241394189,"semimajor_km":6931.5886930135,"source":"CELESTRAK","updated_at":"2026-05-25T13:37:55.722153Z"}}